Location: Madrid
(40.4000°N, 3.6830°W)
Time: 16:09:54
(UTC+02:00)

ISS - Pass Details

Date: 09 March 2021
Orbit: 418 x 422 km, 51.6° (Epoch: 16 April)

Event Time Altitude Azimuth Distance (km) Brightness Sun altitude
Exits shadow 06:30:42 12° 318° (NW) 1,409 -1.4 -13.2°
Maximum altitude 06:33:43 45° 31° (NNE) 576 -2.8 -12.7°
Drops below altitude 10° 06:36:54 10° 106° (ESE) 1,469 0.2 -12.1°
Sets 06:39:06 0° 113° (ESE) 2,354 1.3 -11.6°
